Year,Month,Day,Hour,Minute,Value (Times are PST for temperature in C)
2014,08,28,00,00,17.10
2014,08,28,00,01,17.10
2014,08,28,00,02,17.10
2014,08,28,00,03,17.10
2014,08,28,00,04,17.10
2014,08,28,00,05,17.10
2014,08,28,00,06,17.10
2014,08,28,00,07,17.10
2014,08,28,00,08,17.10
2014,08,28,00,09,17.10
2014,08,28,00,10,17.10
2014,08,28,00,11,17.10
2014,08,28,00,12,17.10
2014,08,28,00,13,17.10
2014,08,28,00,14,17.10
2014,08,28,00,15,17.00
2014,08,28,00,16,17.00
2014,08,28,00,17,16.90
2014,08,28,00,18,16.90
2014,08,28,00,19,16.90
2014,08,28,00,20,16.90
2014,08,28,00,21,16.80
2014,08,28,00,22,16.80
2014,08,28,00,23,16.80
2014,08,28,00,24,16.70
2014,08,28,00,25,16.70
2014,08,28,00,26,16.70
2014,08,28,00,27,16.70
2014,08,28,00,28,16.70
2014,08,28,00,29,16.70
2014,08,28,00,30,16.70
2014,08,28,00,31,16.70
2014,08,28,00,32,16.70
2014,08,28,00,33,16.70
2014,08,28,00,34,16.70
2014,08,28,00,35,16.70
2014,08,28,00,36,16.70
2014,08,28,00,37,16.70
2014,08,28,00,38,16.70
2014,08,28,00,39,16.70
2014,08,28,00,40,16.70
2014,08,28,00,41,16.70
2014,08,28,00,42,16.70
2014,08,28,00,43,16.70
2014,08,28,00,44,16.60
2014,08,28,00,45,16.60
2014,08,28,00,46,16.60
2014,08,28,00,47,16.60
2014,08,28,00,48,16.60
2014,08,28,00,49,16.60
2014,08,28,00,50,16.60
2014,08,28,00,51,16.60
2014,08,28,00,52,16.50
2014,08,28,00,53,16.50
2014,08,28,00,54,16.50
2014,08,28,00,55,16.50
2014,08,28,00,56,16.50
2014,08,28,00,57,16.50
2014,08,28,00,58,16.50
2014,08,28,00,59,16.50
2014,08,28,01,00,16.50
2014,08,28,01,01,16.50
2014,08,28,01,02,16.50
2014,08,28,01,03,16.50
2014,08,28,01,04,16.50
2014,08,28,01,05,16.50
2014,08,28,01,06,16.50
2014,08,28,01,07,16.50
2014,08,28,01,08,16.50
2014,08,28,01,09,16.50
2014,08,28,01,10,16.50
2014,08,28,01,11,16.50
2014,08,28,01,12,16.50
2014,08,28,01,13,16.50
2014,08,28,01,14,16.50
2014,08,28,01,15,16.50
2014,08,28,01,16,16.40
2014,08,28,01,17,16.40
2014,08,28,01,18,16.40
2014,08,28,01,19,16.40
2014,08,28,01,20,16.40
2014,08,28,01,21,16.40
2014,08,28,01,22,16.50
2014,08,28,01,23,16.50
2014,08,28,01,24,16.50
2014,08,28,01,25,16.50
2014,08,28,01,26,16.50
2014,08,28,01,27,16.50
2014,08,28,01,28,16.50
2014,08,28,01,29,16.50
2014,08,28,01,30,16.50
2014,08,28,01,31,16.50
2014,08,28,01,32,16.50
2014,08,28,01,33,16.50
2014,08,28,01,34,16.50
2014,08,28,01,35,16.50
2014,08,28,01,36,16.50
2014,08,28,01,37,16.50
2014,08,28,01,38,16.50
2014,08,28,01,39,16.50
2014,08,28,01,40,16.50
2014,08,28,01,41,16.50
2014,08,28,01,42,16.50
2014,08,28,01,43,16.50
2014,08,28,01,44,16.50
2014,08,28,01,45,16.50
2014,08,28,01,46,16.50
2014,08,28,01,47,16.50
2014,08,28,01,48,16.50
2014,08,28,01,49,16.50
2014,08,28,01,50,16.50
2014,08,28,01,51,16.50
2014,08,28,01,52,16.50
2014,08,28,01,53,16.50
2014,08,28,01,54,16.50
2014,08,28,01,55,16.50
2014,08,28,01,56,16.50
2014,08,28,01,57,16.50
2014,08,28,01,58,16.50
2014,08,28,01,59,16.60
2014,08,28,02,00,16.60
2014,08,28,02,01,16.60
2014,08,28,02,02,16.60
2014,08,28,02,03,16.60
2014,08,28,02,04,16.60
2014,08,28,02,05,16.60
2014,08,28,02,06,16.60
2014,08,28,02,07,16.60
2014,08,28,02,08,16.60
2014,08,28,02,09,16.60
2014,08,28,02,10,16.60
2014,08,28,02,11,16.60
2014,08,28,02,12,16.60
2014,08,28,02,13,16.60
2014,08,28,02,14,16.60
2014,08,28,02,15,16.60
2014,08,28,02,16,16.60
2014,08,28,02,17,16.70
2014,08,28,02,18,16.70
2014,08,28,02,19,16.70
2014,08,28,02,20,16.70
2014,08,28,02,21,16.70
2014,08,28,02,22,16.70
2014,08,28,02,23,16.70
2014,08,28,02,24,16.70
2014,08,28,02,25,16.70
2014,08,28,02,26,16.70
2014,08,28,02,27,16.70
2014,08,28,02,28,16.70
2014,08,28,02,29,16.70
2014,08,28,02,30,16.70
2014,08,28,02,31,16.70
2014,08,28,02,32,16.70
2014,08,28,02,33,16.70
2014,08,28,02,34,16.70
2014,08,28,02,35,16.80
2014,08,28,02,36,16.80
2014,08,28,02,37,16.80
2014,08,28,02,38,16.80
2014,08,28,02,39,16.80
2014,08,28,02,40,16.80
2014,08,28,02,41,16.80
2014,08,28,02,42,16.90
2014,08,28,02,43,16.90
2014,08,28,02,44,16.90
2014,08,28,02,45,16.90
2014,08,28,02,46,16.90
2014,08,28,02,47,17.00
2014,08,28,02,48,17.00
2014,08,28,02,49,17.00
2014,08,28,02,50,17.00
2014,08,28,02,51,17.00
2014,08,28,02,52,17.00
2014,08,28,02,53,17.00
2014,08,28,02,54,17.00
2014,08,28,02,55,17.00
2014,08,28,02,56,17.00
2014,08,28,02,57,17.00
2014,08,28,02,58,17.00
2014,08,28,02,59,17.00
2014,08,28,03,00,17.00
2014,08,28,03,01,17.00
2014,08,28,03,02,17.00
2014,08,28,03,03,17.00
2014,08,28,03,04,17.00
2014,08,28,03,05,17.00
2014,08,28,03,06,17.00
2014,08,28,03,07,17.00
2014,08,28,03,08,17.00
2014,08,28,03,09,16.90
2014,08,28,03,10,17.00
2014,08,28,03,11,17.00
2014,08,28,03,12,17.00
2014,08,28,03,13,17.10
2014,08,28,03,14,17.10
2014,08,28,03,15,17.10
2014,08,28,03,16,17.10
2014,08,28,03,17,17.10
2014,08,28,03,18,17.10
2014,08,28,03,19,17.10
2014,08,28,03,20,17.10
2014,08,28,03,21,17.10
2014,08,28,03,22,17.10
2014,08,28,03,23,17.10
2014,08,28,03,24,17.10
2014,08,28,03,25,17.10
2014,08,28,03,26,17.10
2014,08,28,03,27,17.10
2014,08,28,03,28,17.10
2014,08,28,03,29,17.10
2014,08,28,03,30,17.10
2014,08,28,03,31,17.10
2014,08,28,03,32,17.10
2014,08,28,03,33,17.10
2014,08,28,03,34,17.10
2014,08,28,03,35,17.10
2014,08,28,03,36,17.10
2014,08,28,03,37,17.20
2014,08,28,03,38,17.20
2014,08,28,03,39,17.20
2014,08,28,03,40,17.20
2014,08,28,03,41,17.20
2014,08,28,03,42,17.20
2014,08,28,03,43,17.20
2014,08,28,03,44,17.20
2014,08,28,03,45,17.20
2014,08,28,03,46,17.20
2014,08,28,03,47,17.20
2014,08,28,03,48,17.30
2014,08,28,03,49,17.30
2014,08,28,03,50,17.30
2014,08,28,03,51,17.30
2014,08,28,03,52,17.30
2014,08,28,03,53,17.30
2014,08,28,03,54,17.30
2014,08,28,03,55,17.30
2014,08,28,03,56,17.30
2014,08,28,03,57,17.30
2014,08,28,03,58,17.30
2014,08,28,03,59,17.30
2014,08,28,04,00,17.30
2014,08,28,04,01,17.30
2014,08,28,04,02,17.20
2014,08,28,04,03,17.20
2014,08,28,04,04,17.20
2014,08,28,04,05,17.20
2014,08,28,04,06,17.20
2014,08,28,04,07,17.20
2014,08,28,04,08,17.20
2014,08,28,04,09,17.20
2014,08,28,04,10,17.20
2014,08,28,04,11,17.20
2014,08,28,04,12,17.20
2014,08,28,04,13,17.20
2014,08,28,04,14,17.10
2014,08,28,04,15,17.10
2014,08,28,04,16,17.10
2014,08,28,04,17,17.10
2014,08,28,04,18,17.10
2014,08,28,04,19,17.10
2014,08,28,04,20,17.10
2014,08,28,04,21,17.10
2014,08,28,04,22,17.10
2014,08,28,04,23,17.10
2014,08,28,04,24,17.10
2014,08,28,04,25,17.10
2014,08,28,04,26,17.10
2014,08,28,04,27,17.10
2014,08,28,04,28,17.10
2014,08,28,04,29,17.10
2014,08,28,04,30,17.10
2014,08,28,04,31,17.10
2014,08,28,04,32,17.10
2014,08,28,04,33,17.10
2014,08,28,04,34,17.10
2014,08,28,04,35,17.10
2014,08,28,04,36,17.10
2014,08,28,04,37,17.10
2014,08,28,04,38,17.10
2014,08,28,04,39,17.10
2014,08,28,04,40,17.10
2014,08,28,04,41,17.10
2014,08,28,04,42,17.10
2014,08,28,04,43,17.10
2014,08,28,04,44,17.10
2014,08,28,04,45,17.10
2014,08,28,04,46,17.10
2014,08,28,04,47,17.10
2014,08,28,04,48,17.10
2014,08,28,04,49,17.10
2014,08,28,04,50,17.10
2014,08,28,04,51,17.10
2014,08,28,04,52,17.10
2014,08,28,04,53,17.10
2014,08,28,04,54,17.10
2014,08,28,04,55,17.10
2014,08,28,04,56,17.10
2014,08,28,04,57,17.10
2014,08,28,04,58,17.10
2014,08,28,04,59,17.10
2014,08,28,05,00,17.10
2014,08,28,05,01,17.10
2014,08,28,05,02,17.10
2014,08,28,05,03,17.10
2014,08,28,05,04,17.00
2014,08,28,05,05,17.00
2014,08,28,05,06,17.00
2014,08,28,05,07,17.00
2014,08,28,05,08,17.10
2014,08,28,05,09,17.10
2014,08,28,05,10,17.10
2014,08,28,05,11,17.10
2014,08,28,05,12,17.10
2014,08,28,05,13,17.20
2014,08,28,05,14,17.20
2014,08,28,05,15,17.20
2014,08,28,05,16,17.20
2014,08,28,05,17,17.20
2014,08,28,05,18,17.20
2014,08,28,05,19,17.20
2014,08,28,05,20,17.20
2014,08,28,05,21,17.20
2014,08,28,05,22,17.20
2014,08,28,05,23,17.20
2014,08,28,05,24,17.20
2014,08,28,05,25,17.20
2014,08,28,05,26,17.20
2014,08,28,05,27,17.20
2014,08,28,05,28,17.20
2014,08,28,05,29,17.20
2014,08,28,05,30,17.20
2014,08,28,05,31,17.20
2014,08,28,05,32,17.20
2014,08,28,05,33,17.20
2014,08,28,05,34,17.20
2014,08,28,05,35,17.10
2014,08,28,05,36,17.10
2014,08,28,05,37,17.10
2014,08,28,05,38,17.10
2014,08,28,05,39,17.10
2014,08,28,05,40,17.10
2014,08,28,05,41,17.10
2014,08,28,05,42,17.10
2014,08,28,05,43,17.10
2014,08,28,05,44,17.10
2014,08,28,05,45,17.10
2014,08,28,05,46,17.10
2014,08,28,05,47,17.10
2014,08,28,05,48,17.10
2014,08,28,05,49,17.00
2014,08,28,05,50,17.00
2014,08,28,05,51,17.00
2014,08,28,05,52,17.00
2014,08,28,05,53,17.00
2014,08,28,05,54,17.00
2014,08,28,05,55,17.00
2014,08,28,05,56,16.90
2014,08,28,05,57,16.90
2014,08,28,05,58,16.90
2014,08,28,05,59,16.90
2014,08,28,06,00,16.90
2014,08,28,06,01,16.90
2014,08,28,06,02,16.90
2014,08,28,06,03,16.90
2014,08,28,06,04,16.90
2014,08,28,06,05,16.90
2014,08,28,06,06,16.90
2014,08,28,06,07,16.90
2014,08,28,06,08,16.80
2014,08,28,06,09,16.80
2014,08,28,06,10,16.80
2014,08,28,06,11,16.80
2014,08,28,06,12,16.80
2014,08,28,06,13,16.80
2014,08,28,06,14,16.80
2014,08,28,06,15,16.80
2014,08,28,06,16,16.80
2014,08,28,06,17,16.80
2014,08,28,06,18,16.80
2014,08,28,06,19,16.80
2014,08,28,06,20,16.80
2014,08,28,06,21,16.80
2014,08,28,06,22,16.80
2014,08,28,06,23,16.90
2014,08,28,06,24,16.90
2014,08,28,06,25,16.90
2014,08,28,06,26,16.90
2014,08,28,06,27,16.90
2014,08,28,06,28,17.00
2014,08,28,06,29,17.00
2014,08,28,06,30,17.00
2014,08,28,06,31,17.00
2014,08,28,06,32,17.00
2014,08,28,06,33,17.00
2014,08,28,06,34,17.10
2014,08,28,06,35,17.10
2014,08,28,06,36,17.10
2014,08,28,06,37,17.10
2014,08,28,06,38,17.20
2014,08,28,06,39,17.20
2014,08,28,06,40,17.20
2014,08,28,06,41,17.20
2014,08,28,06,42,17.20
2014,08,28,06,43,17.20
2014,08,28,06,44,17.30
2014,08,28,06,45,17.30
2014,08,28,06,46,17.30
2014,08,28,06,47,17.30
2014,08,28,06,48,17.30
2014,08,28,06,49,17.30
2014,08,28,06,50,17.30
2014,08,28,06,51,17.30
2014,08,28,06,52,17.40
2014,08,28,06,53,17.40
2014,08,28,06,54,17.40
2014,08,28,06,55,17.40
2014,08,28,06,56,17.40
2014,08,28,06,57,17.40
2014,08,28,06,58,17.40
2014,08,28,06,59,17.40
2014,08,28,07,00,17.40
2014,08,28,07,01,17.50
2014,08,28,07,02,17.50
2014,08,28,07,03,17.50
2014,08,28,07,04,17.50
2014,08,28,07,05,17.60
2014,08,28,07,06,17.60
2014,08,28,07,07,17.60
2014,08,28,07,08,17.60
2014,08,28,07,09,17.70
2014,08,28,07,10,17.70
2014,08,28,07,11,17.70
2014,08,28,07,12,17.70
2014,08,28,07,13,17.80
2014,08,28,07,14,17.80
2014,08,28,07,15,17.80
2014,08,28,07,16,17.80
2014,08,28,07,17,17.80
2014,08,28,07,18,17.80
2014,08,28,07,19,17.80
2014,08,28,07,20,17.80
2014,08,28,07,21,17.90
2014,08,28,07,22,17.90
2014,08,28,07,23,17.90
2014,08,28,07,24,17.90
2014,08,28,07,25,17.90
2014,08,28,07,26,17.90
2014,08,28,07,27,17.90
2014,08,28,07,28,17.90
2014,08,28,07,29,17.90
2014,08,28,07,30,17.90
2014,08,28,07,31,17.90
2014,08,28,07,32,17.90
2014,08,28,07,33,17.90
2014,08,28,07,34,17.90
2014,08,28,07,35,17.90
2014,08,28,07,36,17.90
2014,08,28,07,37,17.90
2014,08,28,07,38,17.90
2014,08,28,07,39,17.90
2014,08,28,07,40,17.90
2014,08,28,07,41,17.90
2014,08,28,07,42,17.90
2014,08,28,07,43,17.90
2014,08,28,07,44,18.00
2014,08,28,07,45,18.00
2014,08,28,07,46,18.00
2014,08,28,07,47,18.00
2014,08,28,07,48,18.10
2014,08,28,07,49,18.10
2014,08,28,07,50,18.10
2014,08,28,07,51,18.10
2014,08,28,07,52,18.10
2014,08,28,07,53,18.10
2014,08,28,07,54,18.10
2014,08,28,07,55,18.10
2014,08,28,07,56,18.10
2014,08,28,07,57,18.10
2014,08,28,07,58,18.10
2014,08,28,07,59,18.10
2014,08,28,08,00,18.10
2014,08,28,08,01,18.10
2014,08,28,08,02,18.10
2014,08,28,08,03,18.10
2014,08,28,08,04,18.10
2014,08,28,08,05,18.10
2014,08,28,08,06,18.10
2014,08,28,08,07,18.10
2014,08,28,08,08,18.10
2014,08,28,08,09,18.10
2014,08,28,08,10,18.10
2014,08,28,08,11,18.00
2014,08,28,08,12,18.00
2014,08,28,08,13,18.10
2014,08,28,08,14,18.10
2014,08,28,08,15,18.10
2014,08,28,08,16,18.10
2014,08,28,08,17,18.10
2014,08,28,08,18,18.10
2014,08,28,08,19,18.10
2014,08,28,08,20,18.20
2014,08,28,08,21,18.20
2014,08,28,08,22,18.20
2014,08,28,08,23,18.20
2014,08,28,08,24,18.30
2014,08,28,08,25,18.30
2014,08,28,08,26,18.30
2014,08,28,08,27,18.30
2014,08,28,08,28,18.30
2014,08,28,08,29,18.30
2014,08,28,08,30,18.30
2014,08,28,08,31,18.30
2014,08,28,08,32,18.30
2014,08,28,08,33,18.30
2014,08,28,08,34,18.30
2014,08,28,08,35,18.30
2014,08,28,08,36,18.40
2014,08,28,08,37,18.40
2014,08,28,08,38,18.40
2014,08,28,08,39,18.40
2014,08,28,08,40,18.40
2014,08,28,08,41,18.40
2014,08,28,08,42,18.50
2014,08,28,08,43,18.50
2014,08,28,08,44,18.50
2014,08,28,08,45,18.50
2014,08,28,08,46,18.60
2014,08,28,08,47,18.60
2014,08,28,08,48,18.60
2014,08,28,08,49,18.60
2014,08,28,08,50,18.60
2014,08,28,08,51,18.60
2014,08,28,08,52,18.60
2014,08,28,08,53,18.60
2014,08,28,08,54,18.60
2014,08,28,08,55,18.70
2014,08,28,08,56,18.60
2014,08,28,08,57,18.60
2014,08,28,08,58,18.60
2014,08,28,08,59,18.60
2014,08,28,09,00,18.60
2014,08,28,09,01,18.60
2014,08,28,09,02,18.60
2014,08,28,09,03,18.60
2014,08,28,09,04,18.60
2014,08,28,09,05,18.60
2014,08,28,09,06,18.50
2014,08,28,09,07,18.60
2014,08,28,09,08,18.60
2014,08,28,09,09,18.60
2014,08,28,09,10,18.60
2014,08,28,09,11,18.60
2014,08,28,09,12,18.60
2014,08,28,09,13,18.60
2014,08,28,09,14,18.60
2014,08,28,09,15,18.60
2014,08,28,09,16,18.60
2014,08,28,09,17,18.60
2014,08,28,09,18,18.60
2014,08,28,09,19,18.60
2014,08,28,09,20,18.60
2014,08,28,09,21,18.60
2014,08,28,09,22,18.60
2014,08,28,09,23,18.60
2014,08,28,09,24,18.60
2014,08,28,09,25,18.60
2014,08,28,09,26,18.60
2014,08,28,09,27,18.60
2014,08,28,09,28,18.60
2014,08,28,09,29,18.60
2014,08,28,09,30,18.60
2014,08,28,09,31,18.70
2014,08,28,09,32,18.70
2014,08,28,09,33,18.70
2014,08,28,09,34,18.70
2014,08,28,09,35,18.80
2014,08,28,09,36,18.80
2014,08,28,09,37,18.80
2014,08,28,09,38,18.80
2014,08,28,09,39,18.90
2014,08,28,09,40,18.90
2014,08,28,09,41,19.00
2014,08,28,09,42,19.10
2014,08,28,09,43,19.10
2014,08,28,09,44,19.10
2014,08,28,09,45,19.10
2014,08,28,09,46,19.20
2014,08,28,09,47,19.20
2014,08,28,09,48,19.20
2014,08,28,09,49,19.20
2014,08,28,09,50,19.20
2014,08,28,09,51,19.20
2014,08,28,09,52,19.30
2014,08,28,09,53,19.30
2014,08,28,09,54,19.30
2014,08,28,09,55,19.30
2014,08,28,09,56,19.40
2014,08,28,09,57,19.40
2014,08,28,09,58,19.50
2014,08,28,09,59,19.50
2014,08,28,10,00,19.60
2014,08,28,10,01,19.60
2014,08,28,10,02,19.70
2014,08,28,10,03,19.70
2014,08,28,10,04,19.70
2014,08,28,10,05,19.60
2014,08,28,10,06,19.60
2014,08,28,10,07,19.70
2014,08,28,10,08,19.70
2014,08,28,10,09,19.70
2014,08,28,10,10,19.70
2014,08,28,10,11,19.70
2014,08,28,10,12,19.70
2014,08,28,10,13,19.70
2014,08,28,10,14,19.80
2014,08,28,10,15,19.80
2014,08,28,10,16,19.80
2014,08,28,10,17,19.80
2014,08,28,10,18,19.80
2014,08,28,10,19,19.90
2014,08,28,10,20,19.90
2014,08,28,10,21,20.00
2014,08,28,10,22,20.00
2014,08,28,10,23,20.00
2014,08,28,10,24,20.00
2014,08,28,10,25,20.00
2014,08,28,10,26,20.10
2014,08,28,10,27,20.00
2014,08,28,10,28,20.00
2014,08,28,10,29,19.90
2014,08,28,10,30,19.90
2014,08,28,10,31,19.90
2014,08,28,10,32,19.90
2014,08,28,10,33,20.00
2014,08,28,10,34,20.10
2014,08,28,10,35,20.10
2014,08,28,10,36,20.10
2014,08,28,10,37,20.20
2014,08,28,10,38,20.20
2014,08,28,10,39,20.20
2014,08,28,10,40,20.20
2014,08,28,10,41,20.20
2014,08,28,10,42,20.20
2014,08,28,10,43,20.20
2014,08,28,10,44,20.20
2014,08,28,10,45,20.30
2014,08,28,10,46,20.30
2014,08,28,10,47,20.40
2014,08,28,10,48,20.40
2014,08,28,10,49,20.50
2014,08,28,10,50,20.50
2014,08,28,10,51,20.50
2014,08,28,10,52,20.50
2014,08,28,10,53,20.50
2014,08,28,10,54,20.50
2014,08,28,10,55,20.60
2014,08,28,10,56,20.50
2014,08,28,10,57,20.40
2014,08,28,10,58,20.40
2014,08,28,10,59,20.30
2014,08,28,11,00,20.40
2014,08,28,11,01,20.40
2014,08,28,11,02,20.40
2014,08,28,11,03,20.40
2014,08,28,11,04,20.50
2014,08,28,11,05,20.60
2014,08,28,11,06,20.70
2014,08,28,11,07,20.80
2014,08,28,11,08,20.80
2014,08,28,11,09,20.90
2014,08,28,11,10,20.90
2014,08,28,11,11,20.90
2014,08,28,11,12,20.90
2014,08,28,11,13,21.00
2014,08,28,11,14,21.00
2014,08,28,11,15,21.10
2014,08,28,11,16,21.20
2014,08,28,11,17,21.30
2014,08,28,11,18,21.30
2014,08,28,11,19,21.30
2014,08,28,11,20,21.30
2014,08,28,11,21,21.40
2014,08,28,11,22,21.50
2014,08,28,11,23,21.60
2014,08,28,11,24,21.60
2014,08,28,11,25,21.70
2014,08,28,11,26,21.70
2014,08,28,11,27,21.70
2014,08,28,11,28,21.70
2014,08,28,11,29,21.80
2014,08,28,11,30,21.80
2014,08,28,11,31,21.80
2014,08,28,11,32,21.90
2014,08,28,11,33,22.00
2014,08,28,11,34,21.90
2014,08,28,11,35,21.90
2014,08,28,11,36,21.80
2014,08,28,11,37,21.70
2014,08,28,11,38,21.70
2014,08,28,11,39,21.70
2014,08,28,11,40,21.70
2014,08,28,11,41,21.70
2014,08,28,11,42,21.70
2014,08,28,11,43,21.70
2014,08,28,11,44,21.80
2014,08,28,11,45,21.80
2014,08,28,11,46,21.80
2014,08,28,11,47,21.90
2014,08,28,11,48,22.00
2014,08,28,11,49,22.00
2014,08,28,11,50,22.10
2014,08,28,11,51,22.10
2014,08,28,11,52,22.10
2014,08,28,11,53,22.10
2014,08,28,11,54,22.10
2014,08,28,11,55,22.10
2014,08,28,11,56,22.20
2014,08,28,11,57,22.10
2014,08,28,11,58,22.00
2014,08,28,11,59,21.80
2014,08,28,12,00,21.60
2014,08,28,12,01,21.40
2014,08,28,12,02,21.20
2014,08,28,12,03,21.10
2014,08,28,12,04,20.90
2014,08,28,12,05,20.60
2014,08,28,12,06,20.40
2014,08,28,12,07,20.30
2014,08,28,12,08,20.30
2014,08,28,12,09,20.30
2014,08,28,12,10,20.30
2014,08,28,12,11,20.30
2014,08,28,12,12,20.20
2014,08,28,12,13,20.10
2014,08,28,12,14,19.90
2014,08,28,12,15,19.90
2014,08,28,12,16,19.90
2014,08,28,12,17,20.00
2014,08,28,12,18,20.00
2014,08,28,12,19,20.10
2014,08,28,12,20,20.00
2014,08,28,12,21,20.00
2014,08,28,12,22,19.90
2014,08,28,12,23,19.70
2014,08,28,12,24,19.60
2014,08,28,12,25,19.50
2014,08,28,12,26,19.50
2014,08,28,12,27,19.40
2014,08,28,12,28,19.30
2014,08,28,12,29,19.30
2014,08,28,12,30,19.20
2014,08,28,12,31,19.20
2014,08,28,12,32,19.20
2014,08,28,12,33,19.20
2014,08,28,12,34,19.10
2014,08,28,12,35,19.10
2014,08,28,12,36,19.20
2014,08,28,12,37,19.20
2014,08,28,12,38,19.20
2014,08,28,12,39,19.10
2014,08,28,12,40,19.10
2014,08,28,12,41,19.10
2014,08,28,12,42,19.20
2014,08,28,12,43,19.20
2014,08,28,12,44,19.30
2014,08,28,12,45,19.30
2014,08,28,12,46,19.30
2014,08,28,12,47,19.40
2014,08,28,12,48,19.50
2014,08,28,12,49,19.50
2014,08,28,12,50,19.60
2014,08,28,12,51,19.60
2014,08,28,12,52,19.70
2014,08,28,12,53,19.80
2014,08,28,12,54,19.90
2014,08,28,12,55,19.90
2014,08,28,12,56,20.00
2014,08,28,12,57,20.00
2014,08,28,12,58,20.10
2014,08,28,12,59,20.10
2014,08,28,13,00,20.10
2014,08,28,13,01,20.20
2014,08,28,13,02,20.20
2014,08,28,13,03,20.10
2014,08,28,13,04,20.10
2014,08,28,13,05,20.10
2014,08,28,13,06,20.00
2014,08,28,13,07,19.90
2014,08,28,13,08,19.90
2014,08,28,13,09,19.90
2014,08,28,13,10,19.90
2014,08,28,13,11,20.00
2014,08,28,13,12,20.00
2014,08,28,13,13,20.00
2014,08,28,13,14,19.90
2014,08,28,13,15,19.80
2014,08,28,13,16,19.80
2014,08,28,13,17,19.80
2014,08,28,13,18,19.90
2014,08,28,13,19,20.10
2014,08,28,13,20,20.10
2014,08,28,13,21,20.10
2014,08,28,13,22,20.00
2014,08,28,13,23,19.90
2014,08,28,13,24,19.90
2014,08,28,13,25,20.00
2014,08,28,13,26,20.20
2014,08,28,13,27,20.40
2014,08,28,13,28,20.60
2014,08,28,13,29,20.70
2014,08,28,13,30,20.80
2014,08,28,13,31,20.80
2014,08,28,13,32,20.70
2014,08,28,13,33,20.70
2014,08,28,13,34,20.70
2014,08,28,13,35,20.80
2014,08,28,13,36,20.80
2014,08,28,13,37,20.70
2014,08,28,13,38,20.60
2014,08,28,13,39,20.40
2014,08,28,13,40,20.20
2014,08,28,13,41,20.00
2014,08,28,13,42,19.80
2014,08,28,13,43,19.70
2014,08,28,13,44,19.50
2014,08,28,13,45,19.30
2014,08,28,13,46,19.20
2014,08,28,13,47,19.10
2014,08,28,13,48,19.00
2014,08,28,13,49,18.90
2014,08,28,13,50,18.90
2014,08,28,13,51,18.80
2014,08,28,13,52,18.70
2014,08,28,13,53,18.60
2014,08,28,13,54,18.60
2014,08,28,13,55,18.60
2014,08,28,13,56,18.60
2014,08,28,13,57,18.60
2014,08,28,13,58,18.70
2014,08,28,13,59,18.80
2014,08,28,14,00,18.80
2014,08,28,14,01,18.80
2014,08,28,14,02,18.80
2014,08,28,14,03,18.80
2014,08,28,14,04,18.80
2014,08,28,14,05,18.90
2014,08,28,14,06,18.90
2014,08,28,14,07,18.90
2014,08,28,14,08,19.00
2014,08,28,14,09,19.00
2014,08,28,14,10,19.10
2014,08,28,14,11,19.30
2014,08,28,14,12,19.40
2014,08,28,14,13,19.50
2014,08,28,14,14,19.50
2014,08,28,14,15,19.50
2014,08,28,14,16,19.60
2014,08,28,14,17,19.60
2014,08,28,14,18,19.60
2014,08,28,14,19,19.60
2014,08,28,14,20,19.60
2014,08,28,14,21,19.70
2014,08,28,14,22,19.70
2014,08,28,14,23,19.80
2014,08,28,14,24,19.90
2014,08,28,14,25,19.90
2014,08,28,14,26,20.00
2014,08,28,14,27,20.10
2014,08,28,14,28,20.30
2014,08,28,14,29,20.40
2014,08,28,14,30,20.50
2014,08,28,14,31,20.60
2014,08,28,14,32,20.70
2014,08,28,14,33,20.80
2014,08,28,14,34,20.70
2014,08,28,14,35,20.70
2014,08,28,14,36,20.70
2014,08,28,14,37,20.70
2014,08,28,14,38,20.90
2014,08,28,14,39,20.90
2014,08,28,14,40,21.00
2014,08,28,14,41,21.10
2014,08,28,14,42,21.10
2014,08,28,14,43,21.10
2014,08,28,14,44,21.10
2014,08,28,14,45,21.10
2014,08,28,14,46,20.90
2014,08,28,14,47,20.80
2014,08,28,14,48,20.70
2014,08,28,14,49,20.60
2014,08,28,14,50,20.50
2014,08,28,14,51,20.30
2014,08,28,14,52,20.30
2014,08,28,14,53,20.40
2014,08,28,14,54,20.40
2014,08,28,14,55,20.40
2014,08,28,14,56,20.50
2014,08,28,14,57,20.60
2014,08,28,14,58,20.70
2014,08,28,14,59,20.90
2014,08,28,15,00,21.00
2014,08,28,15,01,21.10
2014,08,28,15,02,21.00
2014,08,28,15,03,21.00
2014,08,28,15,04,20.90
2014,08,28,15,05,20.80
2014,08,28,15,06,20.80
2014,08,28,15,07,20.80
2014,08,28,15,08,20.80
2014,08,28,15,09,20.80
2014,08,28,15,10,20.90
2014,08,28,15,11,20.90
2014,08,28,15,12,21.00
2014,08,28,15,13,21.00
2014,08,28,15,14,21.10
2014,08,28,15,15,21.20
2014,08,28,15,16,21.20
2014,08,28,15,17,21.30
2014,08,28,15,18,21.40
2014,08,28,15,19,21.50
2014,08,28,15,20,21.60
2014,08,28,15,21,21.70
2014,08,28,15,22,21.80
2014,08,28,15,23,21.90
2014,08,28,15,24,22.10
2014,08,28,15,25,22.30
2014,08,28,15,26,22.50
2014,08,28,15,27,22.60
2014,08,28,15,28,22.60
2014,08,28,15,29,22.60
2014,08,28,15,30,22.70
2014,08,28,15,31,22.70
2014,08,28,15,32,22.70
2014,08,28,15,33,22.70
2014,08,28,15,34,22.70
2014,08,28,15,35,22.60
2014,08,28,15,36,22.60
2014,08,28,15,37,22.60
2014,08,28,15,38,22.50
2014,08,28,15,39,22.40
2014,08,28,15,40,22.40
2014,08,28,15,41,22.30
2014,08,28,15,42,22.20
2014,08,28,15,43,22.10
2014,08,28,15,44,21.90
2014,08,28,15,45,21.80
2014,08,28,15,46,21.80
2014,08,28,15,47,21.80
2014,08,28,15,48,21.80
2014,08,28,15,49,21.90
2014,08,28,15,50,21.80
2014,08,28,15,51,21.80
2014,08,28,15,52,21.80
2014,08,28,15,53,21.80
2014,08,28,15,54,21.90
2014,08,28,15,55,21.90
2014,08,28,15,56,21.90
2014,08,28,15,57,21.90
2014,08,28,15,58,21.90
2014,08,28,15,59,21.90
2014,08,28,16,00,21.90
2014,08,28,16,01,21.90
2014,08,28,16,02,21.90
2014,08,28,16,03,21.80
2014,08,28,16,04,21.80
2014,08,28,16,05,21.70
2014,08,28,16,06,21.70
2014,08,28,16,07,21.70
2014,08,28,16,08,21.70
2014,08,28,16,09,21.80
2014,08,28,16,10,21.80
2014,08,28,16,11,21.90
2014,08,28,16,12,21.80
2014,08,28,16,13,21.60
2014,08,28,16,14,21.50
2014,08,28,16,15,21.40
2014,08,28,16,16,21.40
2014,08,28,16,17,21.30
2014,08,28,16,18,21.20
2014,08,28,16,19,21.20
2014,08,28,16,20,21.20
2014,08,28,16,21,21.10
2014,08,28,16,22,21.10
2014,08,28,16,23,21.00
2014,08,28,16,24,20.90
2014,08,28,16,25,20.80
2014,08,28,16,26,20.80
2014,08,28,16,27,20.80
2014,08,28,16,28,20.80
2014,08,28,16,29,20.80
2014,08,28,16,30,20.80
2014,08,28,16,31,20.90
2014,08,28,16,32,20.90
2014,08,28,16,33,20.90
2014,08,28,16,34,20.90
2014,08,28,16,35,20.80
2014,08,28,16,36,20.80
2014,08,28,16,37,20.70
2014,08,28,16,38,20.60
2014,08,28,16,39,20.50
2014,08,28,16,40,20.40
2014,08,28,16,41,20.30
2014,08,28,16,42,20.20
2014,08,28,16,43,20.10
2014,08,28,16,44,20.00
2014,08,28,16,45,20.00
2014,08,28,16,46,20.10
2014,08,28,16,47,20.10
2014,08,28,16,48,20.10
2014,08,28,16,49,20.20
2014,08,28,16,50,20.20
2014,08,28,16,51,20.30
2014,08,28,16,52,20.30
2014,08,28,16,53,20.30
2014,08,28,16,54,20.30
2014,08,28,16,55,20.30
2014,08,28,16,56,20.30
2014,08,28,16,57,20.30
2014,08,28,16,58,20.20
2014,08,28,16,59,20.20
2014,08,28,17,00,20.10
2014,08,28,17,01,20.00
2014,08,28,17,02,19.90
2014,08,28,17,03,19.80
2014,08,28,17,04,19.80
2014,08,28,17,05,19.70
2014,08,28,17,06,19.60
2014,08,28,17,07,19.50
2014,08,28,17,08,19.40
2014,08,28,17,09,19.30
2014,08,28,17,10,19.10
2014,08,28,17,11,19.10
2014,08,28,17,12,19.00
2014,08,28,17,13,19.00
2014,08,28,17,14,19.00
2014,08,28,17,15,19.00
2014,08,28,17,16,19.00
2014,08,28,17,17,19.10
2014,08,28,17,18,19.10
2014,08,28,17,19,19.10